Regional Weather Roundup
Issued by NWS Kansas City/Pleasant Hill, MO

Home | Current Version | Previous Version | Graphics & Text | Print | Product List | Glossary Off
Versions: 1 2 3 4 5 6 7 8 9 10 11 12 13 14 15 16 17 18 19 20 21 22 23 24 25 26 27

000
ASUS43 KEAX 170210
RWREAX

WEATHER ROUNDUP FOR EASTERN KANSAS AND NORTHWEST MISSOURI
NATIONAL WEATHER SERVICE KANSAS CITY/PLEASANT HILL MO
800 PM CST TUE JAN 16 2018

KSZ040-057-103>105-MOZ028-029-037-043-170300-
...KANSAS CITY METROPOLITAN AREA...

CITY           SKY/WX    TMP DP  RH WIND       PRES   REMARKS
K.C. INTL      CLOUDY     3  -2  79 NW3       30.71S
K.C. DOWNTOWN  CLEAR      8  -1  66 W5        30.74S WCI   0
LEES SUMMIT    CLOUDY     5   0  79 NW5       30.71S WCI  -4
OLATHE - IXD   CLOUDY     3  -2  79 N7        30.71S WCI  -9
OLATHE - OJC   CLEAR      6   0  76 N6        30.70S WCI  -4
LAWRENCE       CLOUDY    -1  -4  87 CALM      30.74S

$$

MOZ001>008-011>017-020>025-030>033-038>040-044>046-053-054-170300-
...NORTHERN AND CENTRAL MISSOURI...

CITY           SKY/WX    TMP DP  RH WIND       PRES   REMARKS
ST. JOSEPH     CLOUDY     1  -1  91 W5        30.74S WCI  -9
MOSBY          CLEAR      5   0  78 CALM      30.73F
WARRENSBURG    CLEAR      5   0  78 NW5       30.73S WCI  -4
WHITEMAN AFB   CLEAR      5  -3  71 NW6       30.68S WCI  -6
CLINTON        CLOUDY     1  -2  85 CALM      30.74S
SEDALIA        CLOUDY     5   0  79 W5        30.71S WCI  -4
WARSAW         NOT AVBL
CHILLICOTHE      N/A      6  -2  69 W6        30.72S WCI  -4
KIRKSVILLE     CLEAR      4  -1  80 NW7       30.67R WCI  -8

$$

MOZ041-047>049-056>058-063>065-088>090-097-170300-
...EASTERN AND SOUTHERN MISSOURI...

CITY           SKY/WX    TMP DP  RH WIND       PRES   REMARKS
ST. LOUIS INTL FLURRIES   9   3  77 W9        30.70R WCI  -4
SPIRIT OF STL  CLOUDY     9   2  73 W6        30.71R WCI  -1
COLUMBIA       CLEAR      4  -1  80 W6        30.69F WCI  -7
JEFFERSON CITY PTCLDY     7  -1  70 W5        30.74F WCI  -2
ROLLA          CLOUDY     6   1  80 NW9       30.68R WCI  -8
OSAGE BEACH    CLOUDY     2  -7  66 CALM      30.74R
SPRINGFIELD    CLOUDY     4  -2  76 NW3       30.68S
BRANSON        PTCLDY     3   0  85 NW7       30.69R WCI  -9
JOPLIN         PTCLDY     1  -2  87 CALM      30.74S
WEST PLAINS    CLEAR      4  -4  69 NW6       30.66R WCI  -7

$$

IAZ060-094-KSZ022-034>040-054-083-096-NEZ052-066-093-170300-
...KANSAS...SOUTHEAST NEBRASKA AND IOWA...

CITY           SKY/WX    TMP DP  RH WIND       PRES   REMARKS
TOPEKA         CLOUDY     7   1  76 CALM      30.73S
MANHATTAN      CLOUDY     4  -1  80 CALM      30.71F
EMPORIA        CLEAR      5   0  79 CALM      30.70S
CHANUTE        CLEAR      6   1  80 CALM      30.73F
WICHITA        CLEAR     12   5  73 N3        30.70F
OMAHA          CLOUDY     7   2  80 CALM      30.69S
LINCOLN        CLOUDY     7   1  76 CALM      30.69S
FALLS CITY     CLOUDY     3  -2  79 W5        30.71S WCI  -6
LAMONI         CLOUDY     1  -4  79 W6        30.67R WCI -10
DES MOINES     CLOUDY     2  -3  80 W3        30.67S

$$





USA.gov is the U.S. government's official web portal to all federal, state and local government web resources and services.